[keps] orb07081.2l.amsat

Ray Hoad r.hoad at att.net
Thu Mar 22 19:12:15 PST 2007


SB KEPS @ AMSAT  $ORB07081.N
2Line Orbital Elements 07081.AMSAT

HR AMSAT ORBITAL ELEMENTS FOR AMATEUR SATELLITES IN NASA FORMAT
FROM WA5QGD FORT WORTH,TX March 22, 2007
Send SUBSCRIBE KEPS/UNSUBSCRIBE KEPS to majordomo at amsat.org only
BID: ORB07081.N

DECODE 2-LINE ELSETS WITH THE FOLLOWING KEY:
1 AAAAAU 00  0  0 BBBBB.BBBBBBBB  .CCCCCCCC  00000-0  00000-0 0  DDDZ
2 AAAAA EEE.EEEE FFF.FFFF GGGGGGG HHH.HHHH III.IIII JJ.JJJJJJJJKKKKKZ
KEY: A-CATALOGNUM B-EPOCHTIME C-DECAY D-ELSETNUM E-INCLINATION F-RAAN
G-ECCENTRICITY H-ARGPERIGEE I-MNANOM J-MNMOTION K-ORBITNUM Z-CHECKSUM

TO ALL RADIO AMATEURS BT

AO-07
1 07530U 74089B   07079.55636236 -.00000028  00000-0  10000-3 0 08334
2 07530 101.5276 120.1383 0012117 069.3281 290.9092 12.53572623480018
AO-10
1 14129U 83058B   07081.11508482 -.00000014  00000-0  10000-3 0  3675
2 14129 026.7903 285.8012 6054589 007.6643 358.5740 02.05869471178779
UO-11
1 14781U 84021B   07079.93464239 -.00000200  00000-0 -19331-4 0 03303
2 14781 098.1967 100.9032 0010129 094.4272 265.8063 14.79530888236687
RS-10/11
1 18129U 87054A   07080.66128544  .00000038  00000-0  24889-4 0  2513
2 18129 082.9235 122.9363 0013242 047.1950 313.0325 13.72785374989220
RS-15
1 23439U 94085A   07080.71001461 -.00000039  00000-0  10597-3 0 00317
2 23439 064.8193 148.3898 0162343 206.2077 153.0562 11.27551794503831
FO-29
1 24278U 96046B   07080.93856899 -.00000027  00000-0  11205-4 0 04730
2 24278 098.5399 052.3366 0350344 309.5590 047.5076 13.52928584523100
SO-33
1 25509U 98061B   07080.53914948  .00000075  00000-0  42216-5 0  8893
2 25509 031.4335 001.2838 0354723 021.0974 340.3881 14.28153816438710
AO-40
1 26609U 00072B   07080.75746372  .00000027  00000-0  10000-3 0  8529
2 26609 004.9165 163.4459 7990300 291.0426 005.9869 01.25586608 29340
VO-52
1 28650U 05017B   07080.70033929  .00000356  00000-0  52155-4 0  5848
2 28650 097.8384 153.3528 0027580 176.1487 184.0069 14.81282099101469
PO-63
1 29712U 07001D   07081.68608661  .00000545  00000-0  79543-4 0  2108
2 29712 097.9303 142.0187 0015245 053.4433 306.8172 14.79597819 10543
AO-16
1 20439U 90005D   07081.64340274  .00000024  00000-0  24111-4 0  9931
2 20439 098.1947 080.9791 0011988 084.2087 276.0464 14.31753861896166
LO-19
1 20442U 90005G   07081.62651154 -.00000053  00000-0 -47699-5 0  9206
2 20442 098.1824 090.4160 0012939 084.2613 276.0060 14.31994568896301
AO-27
1 22825U 93061C   07079.91661544 -.00000044  00000-0 -12529-5 0 06437
2 22825 098.3206 053.6874 0008642 157.3812 202.7736 14.29202283702884
IO-26
1 22826U 93061D   07080.46909330  .00000002  00000-0  17021-4 0  3393
2 22826 098.3146 055.3231 0009050 153.2748 206.8895 14.29448251703048
PO-28
1 22829U 93061G   07079.90826364 -.00000070  00000-0 -10989-4 0 06181
2 22829 098.3026 055.9657 0010217 129.7007 230.5073 14.30146880703192
GO-32
1 25397U 98043D   07080.69701444 -.00000128  00000-0 -38131-4 0 02604
2 25397 098.4262 131.6951 0002021 114.1422 245.9974 14.23121410451712
MO-46
1 26548U 00057D   07079.51549498  .00000060  00000-0  25420-4 0 07514
2 26548 064.5551 096.9805 0025897 208.9856 150.9814 14.83112255350399
NO-44
1 26931U 01043C   07080.28072297 -.00000264  00000-0 -71022-4 0 05469
2 26931 067.0540 013.9293 0006683 277.7079 082.3263 14.29475256285536
SO-50
1 27607U 02058C   07081.25401229  .00000075  00000-0  33845-4 0  2710
2 27607 064.5610 348.9691 0044025 027.0815 333.2570 14.71239254228333
CO-55
1 27844U 03031E   07080.62153793  .00000077  00000-0  56259-4 0 09886
2 27844 098.7215 090.1132 0010130 349.4219 010.6747 14.20498802193042
CO-57
1 27848U 03031J   07080.56054583  .00000041  00000-0  39836-4 0  9490
2 27848 098.7200 089.2803 0009943 352.7988 007.3062 14.20319338193010
AO-51
1 28375U 04025K   07081.67672439  .00000019  00000-0  18413-4 0  7759
2 28375 098.1251 125.4108 0084973 084.2541 276.8327 14.40559570143259
CO-56
1 28941U 06005C   07081.60787080  .00013432  25028-5  15170-3 0  3847
2 28941 098.1409 133.2533 0239163 218.6507 139.7404 15.35942076 60129
HO-59
1 29484U 06041F   07080.57786193  .00022113  27039-5  17483-3 0 02375
2 29484 098.2980 117.4539 0233498 218.3350 140.1085 15.43907347027524
NO-60
1 29661U 06055C   07081.37756408  .00068270  12994-4  19552-3 0  1209
2 29661 051.6401 185.8905 0012920 003.1672 356.9358 15.93265110 14515
NO-61
1 29664U 06055F   07081.75849409  .00020313  00000-0  82171-4 0   910
2 29664 051.6363 186.1544 0015442 005.9049 354.2134 15.86149042 14417
NOAA-10
1 16969U 86073A   07080.67698166 -.00000086  00000-0 -16691-4 0 05932
2 16969 098.7514 097.7839 0013189 064.3958 295.8574 14.27319793066746
NOAA-11
1 19531U 88089A   07080.72316274  .00000240  00000-0  14706-3 0 05925
2 19531 098.8106 170.9804 0010918 280.1471 079.8516 14.14839978953786
NOAA-12
1 21263U 91032A   07081.47913179 -.00000200  00000-0 -65844-4 0   846
2 21263 098.7510 078.8708 0012834 003.1283 356.9984 14.25523933823890
MET-3/5
1 21655U 91056A   07080.95934817  .00000051  00000-0  10000-3 0 02725
2 21655 082.5505 064.5655 0014613 068.5910 291.6769 13.17010388749924
MET-2/21
1 22782U 93055A   07080.57861710  .00000039  00000-0  21266-4 0 07804
2 22782 082.5447 111.4257 0023793 119.8395 240.5136 13.83616410684400
OKEAN-4
1 23317U 94066A   07080.50365107  .00000017  00000-0 -89367-6 0 02174
2 23317 082.5416 018.3315 0022062 177.3043 182.8280 14.82478905671069
NOAA-14
1 23455U 94089A   07080.67242476  .00000107  00000-0  80575-4 0 05704
2 23455 098.9989 146.3606 0008970 352.0756 008.0298 14.13706110630270
SICH-1
1 23657U 95046A   07080.48414464  .00000196  00000-0  21900-4 0 00192
2 23657 082.5311 159.2851 0024305 167.7487 192.4306 14.81462597623047
NOAA-15
1 25338U 98030A   07080.73141664  .00000099  00000-0  61023-4 0 09307
2 25338 098.5299 079.8862 0009753 285.9315 074.0778 14.24631890460238
RESURS
1 25394U 98043A   07081.79093271 -.00000008  00000-0  14583-4 0  6004
2 25394 098.4504 139.7004 0002425 077.2558 282.8892 14.24130448452052
FENGYUN1
1 25730U 99025A   07081.83492066  .00000063  00000-0  62280-4 0   246
2 25730 098.6851 068.9901 0022927 013.4135 346.7634 14.07443515405318
OKEAN-0
1 25860U 99039A   07080.56109740  .00000072  00000-0  18225-4 0 00080
2 25860 097.7320 086.9040 0000867 035.4262 324.6993 14.73438184412591
NOAA-16
1 26536U 00055A   07080.70305152  .00000212  00000-0  13963-3 0 03433
2 26536 099.1089 056.1573 0011203 061.5096 298.7224 14.12413093334755
NOAA-17
1 27453U 02032A   07081.38297428  .00000160  00000-0  88634-4 0  3531
2 27453 098.5867 152.7427 0011342 350.8074 009.2910 14.23863449246368
NOAA-18
1 28654U 05018A   07080.75257483  .00000401  00000-0  24706-3 0 08902
2 28654 098.8221 023.5362 0014601 153.1109 207.0815 14.11047937094520
HUBBLE
1 20580U 90037B   07080.92607148  .00000345  00000-0  13945-4 0 08364
2 20580 028.4668 039.1219 0003706 247.5515 112.4681 15.00208183726849
UARS
1 21701U 91063B   07080.95874339  .00005234  00000-0  92455-4 0 00245
2 21701 056.9773 332.2375 0096973 027.4267 333.1861 15.47206882852246
PO-34
1 25520U 98064B   07080.93906703  .00000475  00000-0  13741-4 0 07009
2 25520 028.4607 332.6758 0005190 025.3814 334.7039 15.16950289464262
ISS
1 25544U 98067A   07081.88636771  .00013783  00000-0  83354-4 0  8765
2 25544 051.6355 189.8840 0014653 340.5672 121.2970 15.77825881477148
OO-38
1 26063U 00004C   07081.41136909 -.00000010  00000-0  16953-4 0  8685
2 26063 100.2237 068.0130 0037201 044.2463 316.1691 14.35799398374591
NO-45
1 26932U 01043D   07080.97990007 -.00000089  00000-0 -23236-5 0 05554
2 26932 067.0516 011.8827 0005495 291.0116 069.0394 14.29551358285671
UWE-1
1 28892U 05043C   07080.73226056  .00000072  00000-0  24991-4 0  7050
2 28892 098.1409 339.0723 0018250 027.3866 332.8275 14.59477113 74459
CO-58
1 28895U 05043F   07079.27416027  .00000224  00000-0  56722-4 0 06852
2 28895 098.1439 337.8199 0018775 032.2176 328.0164 14.59526720074126
NCUBE2
1 28897U 05043H   07080.24992411  .00000163  00000-0  43942-4 0 02082
2 28897 098.1405 338.7414 0018101 030.7973 329.4283 14.59687585066543
NMARS
1 29662U 06055D   07081.69860308  .00094645  14813-4  22877-3 0  1436
2 29662 051.6372 183.4952 0012693 001.1634 358.9430 15.96164437 14462
FCAL
1 29667U 06055J   07080.71525755  .00012935  00000-0  56768-4 0 01031
2 29667 051.6352 191.9469 0015789 005.0375 355.0783 15.84897008014111
FALCON
1 30776U 07006E   07080.94995172  .00000285  00000-0  24061-4 0 00305
2 30776 035.4343 021.4829 0001113 022.4296 337.6466 15.02657828001925
/EX






More information about the Keps mailing list